Location: Recife
(8.0585°S, 34.8848°W)
Time: 13:21:45
(UTC-03:00)

Vanguard 1 - Pass Details

Date: 16 April 2026
Orbit: 654 x 3817 km, 34.3° (Epoch: 11 May)

Event Time Altitude Azimuth Distance (km) Brightness Sun altitude
Rises 04:51:03 0° 334° (NNW) 5,833 13.8 -8.3°
Reaches altitude 10° 04:59:58 10° 8° (N) 3,795 13.3 -6.2°
Maximum altitude 05:01:41 11° 18° (NNE) 3,549 13.3 -5.7°
Drops below altitude 10° 05:03:14 10° 29° (NNE) 3,405 13.4 -5.4°
Sets 05:08:55 0° 68° (ENE) 3,716 15.2 -4.0°
